This is the latest recevied weather packets stored in our database for station/object KK7PZE-13. If no packets are shown the sender has not sent any weather packets the latest 1 day(s).
| Time | Temp. | Humidity | Pressure | Rain* | Wind** | Luminosity | Snow |
|---|---|---|---|---|---|---|---|
| 1778013938 | 20.56° C | 35% | 1010.7 hPa | 0 mm | 1.34 m/s, 230° | - | - |
| 1778013876 | 20.56° C | 35% | 1010.7 hPa | 0 mm | 1.34 m/s, 230° | - | - |
| 1778013274 | 21.11° C | 35% | 1010.4 hPa | 0 mm | 3.58 m/s, 241° | - | - |
| 1778012674 | 21.67° C | 35% | 1010.9 hPa | 0 mm | 3.13 m/s, 219° | - | - |
| 1778012075 | 20.56° C | 36% | 1010.9 hPa | 0 mm | 3.13 m/s, 212° | - | - |
| 1778011475 | 20.56° C | 37% | 1010.7 hPa | 0 mm | 1.79 m/s, 236° | - | - |
| 1778010874 | 20.56° C | 37% | 1010.9 hPa | 0 mm | 1.79 m/s, 216° | - | - |
| 1778010440 | 21.67° C | 35% | 1011 hPa | 0 mm | 1.34 m/s, 195° | - | - |
| 1778010277 | 21.67° C | 35% | 1011 hPa | 0 mm | 1.34 m/s, 195° | - | - |
| 1778009674 | 21.11° C | 36% | 1010.9 hPa | 0 mm | 3.13 m/s, 215° | - | - |
| 1778009075 | 21.11° C | 36% | 1011 hPa | 0 mm | 4.47 m/s, 215° | - | - |
| 1778008694 | 21.11° C | 38% | 1011.1 hPa | 0 mm | 2.68 m/s, 189° | - | - |
| 1778008477 | 21.11° C | 38% | 1011.1 hPa | 0 mm | 2.68 m/s, 189° | - | - |
| 1778007876 | 20.56° C | 39% | 1011.3 hPa | 0 mm | 4.02 m/s, 148° | - | - |
| 1778007275 | 21.11° C | 40% | 1011.3 hPa | 0 mm | 2.24 m/s, 193° | - | - |
| 1778006853 | 20.56° C | 41% | 1011.5 hPa | 0 mm | 2.24 m/s, 200° | - | - |
| 1778006676 | 20.56° C | 41% | 1011.5 hPa | 0 mm | 2.24 m/s, 200° | - | - |
| 1778006077 | 20° C | 41% | 1011.5 hPa | 0 mm | 1.34 m/s, 216° | - | - |
| 1778005477 | 20° C | 43% | 1011.3 hPa | 0 mm | 1.79 m/s, 63° | - | - |
| 1778004878 | 20.56° C | 45% | 1011.4 hPa | 0 mm | 2.24 m/s, 191° | - | - |
| 1778004275 | 18.33° C | 50% | 1011.5 hPa | 0 mm | 0.45 m/s, 109° | - | - |
| 1778003675 | 17.78° C | 53% | 1011.4 hPa | 0 mm | 1.34 m/s, 263° | - | - |
| 1777996729 | 16.67° C | 61% | 1011.4 hPa | 0 mm | 1.79 m/s, 178° | - | - |
| 1777996130 | 16.11° C | 63% | 1011.6 hPa | 0 mm | 0.89 m/s, 165° | - | - |
| 1777995531 | 16.11° C | 74% | 1011.4 hPa | 0 mm | 1.79 m/s, 197° | - | - |
* Rain latest hour (hover to see other rain measurements)
** Current wind speed in m/s (hover to see current wind gust speed)